GEFSNGP_500_meanwind_042.txt.gz
Wind_Speed
16 16 17 18 18 18 17 17 17 18 19 19 18 17 16 16 16 15 15 14 13 11 10 10 10 10 9 9 9 8 7 6 5 4 3 3 3 3 4 5 7 9 12 14
16 17 17 18 18 18 17 17 17 17 18 19 19 19 19 19 19 19 20 20 19 17 15 14 14 13 13 12 11 10 9 8 7 6 5 5 5 6 8 9 11 12 14 16
18 18 17 18 18 18 17 17 17 17 18 19 19 21 21 20 20 19 18 18 19 19 18 17 16 15 14 12 12 11 10 9 8 7 7 7 8 9 10 11 13 14 15 17
18 18 19 18 17 17 17 16 17 18 18 19 19 19 20 20 20 19 18 18 17 17 16 16 16 15 14 14 13 12 11 10 10 9 9 9 10 10 11 12 13 15 16 18
19 19 18 17 16 16 15 15 16 17 17 17 17 18 19 19 19 19 18 18 18 17 16 16 16 15 15 14 14 14 13 13 13 12 12 12 12 12 13 13 14 14 15 16
19 19 19 18 16 14 14 14 15 15 16 17 17 18 19 19 18 18 18 17 17 17 17 16 16 16 15 15 15 15 15 15 14 14 14 14 14 14 14 14 14 14 15 15
18 18 18 18 16 15 13 13 13 14 15 16 17 18 18 18 17 17 17 17 17 17 17 17 16 16 16 16 16 17 17 16 16 17 17 17 16 16 16 15 15 15 14 13
17 17 16 16 16 15 13 13 12 13 14 15 16 17 17 17 16 16 16 16 17 17 17 17 17 17 17 17 17 17 18 18 18 19 19 19 19 19 18 17 16 16 15 13
16 16 16 15 15 14 13 12 12 12 13 13 14 15 15 16 16 16 16 16 16 16 16 16 17 17 17 17 18 18 18 19 19 20 20 20 20 20 20 19 18 18 16 15
15 15 15 15 14 14 13 12 11 11 11 12 13 13 14 15 15 15 15 16 16 16 16 16 16 16 16 17 17 18 18 19 20 20 21 21 21 21 21 20 20 19 18 16
14 15 14 15 14 14 13 12 11 10 10 11 11 12 12 13 13 14 15 15 15 15 15 15 15 16 16 17 17 17 18 19 20 20 21 21 22 22 22 21 21 20 19 18
12 13 14 14 14 14 13 12 11 10 9 9 9 10 10 11 12 12 13 14 14 15 15 15 15 16 16 16 16 17 18 18 19 20 20 21 22 22 23 23 22 21 20 20
10 11 12 13 14 13 12 12 11 10 9 8 7 7 8 9 10 10 11 11 12 13 13 14 14 15 15 15 16 16 17 18 18 19 19 20 21 22 23 23 23 23 21 20
9 10 10 12 12 13 12 12 11 10 8 8 7 6 6 6 7 8 8 9 10 11 12 12 13 14 14 15 15 16 17 17 18 18 18 19 20 21 22 22 23 23 22 21
9 9 9 10 11 12 12 12 11 10 8 7 6 6 5 4 4 5 6 7 8 9 10 11 11 12 13 14 14 15 16 17 17 18 18 19 19 20 21 21 22 22 22 22
11 10 9 9 10 10 11 11 10 10 8 7 6 5 5 4 4 4 4 5 6 7 8 9 10 11 11 12 13 14 15 16 16 17 18 18 19 19 20 20 20 20 21 21
13 12 11 10 10 9 9 9 10 10 9 8 7 6 5 5 5 4 4 4 5 5 6 7 8 9 10 11 12 13 14 15 15 16 17 18 18 19 19 19 19 19 19 19
16 15 14 13 11 10 10 9 9 9 9 9 8 8 7 6 6 6 6 6 5 5 5 6 7 7 8 9 10 11 12 13 14 15 15 17 18 18 18 18 18 18 18 18
19 18 17 16 14 13 12 11 10 10 9 9 9 9 8 7 7 7 7 7 6 6 6 6 6 6 7 8 8 9 10 11 12 13 14 15 16 17 17 17 17 16 16 16
22 21 20 19 18 17 15 14 13 12 11 10 10 9 9 8 8 8 8 8 8 8 7 7 7 7 7 7 7 8 8 10 11 12 13 14 14 15 15 15 15 15 15 15
26 25 23 22 21 20 19 18 17 15 14 13 12 11 11 10 9 9 9 9 9 9 9 8 8 8 8 7 7 7 7 8 9 10 11 12 13 13 14 14 14 14 14 13
30 29 27 26 24 23 23 22 21 20 18 17 16 14 13 12 11 11 10 10 10 11 10 10 10 9 9 9 8 8 8 8 8 9 9 10 11 11 12 12 12 12 12 12
35 33 31 30 29 27 26 25 24 23 23 21 20 19 17 16 14 13 12 12 12 12 12 12 12 12 11 11 11 10 9 9 9 9 9 9 9 10 10 10 10 10 10 10
39 37 36 34 33 31 30 29 28 27 26 25 24 24 22 21 19 17 15 14 14 13 13 14 14 14 14 14 13 12 12 11 10 10 10 9 9 9 9 9 9 9 9 9
44 42 41 39 38 36 35 34 32 30 29 29 28 27 26 25 24 22 20 18 17 16 16 15 15 16 16 16 16 15 14 14 13 12 11 11 10 10 9 9 9 8 8 8
49 47 45 44 43 42 40 38 37 35 33 33 32 31 30 29 28 27 25 24 22 20 19 18 17 17 17 17 18 18 17 17 16 15 14 13 12 12 11 10 10 9 9 9
52 51 50 48 47 45 44 43 42 40 39 37 36 35 34 33 33 32 30 29 27 25 24 22 21 20 19 19 19 19 19 19 19 18 17 16 15 14 14 13 12 11 11 10

GEFSNGP_500_meanwind_048.txt.gz
Wind_Speed
18 17 17 16 15 16 16 17 18 19 19 19 18 17 18 19 19 19 18 18 18 18 17 16 16 15 14 13 12 11 10 8 6 5 4 3 2 2 3 4 4 6 7 8
18 17 16 16 16 16 16 17 17 18 18 19 19 19 19 19 19 19 19 19 19 18 17 16 15 14 14 14 14 13 12 10 9 8 7 7 5 4 4 5 6 7 9 10
19 18 17 16 16 17 16 17 17 17 17 18 18 18 18 18 18 18 18 18 19 19 19 19 18 17 16 16 15 14 13 12 11 10 9 8 8 7 7 7 8 8 9 11
19 19 19 18 17 17 16 16 16 17 17 17 18 17 17 18 18 18 18 18 18 18 18 19 19 19 18 18 17 17 16 15 14 12 11 11 10 10 10 10 10 11 11 12
19 19 19 19 17 17 16 16 16 16 16 17 17 17 18 18 18 18 18 18 18 18 18 18 18 19 19 18 18 18 18 17 17 16 15 14 13 12 12 11 11 11 12 13
19 19 19 18 17 17 16 16 16 16 16 17 17 18 18 18 18 18 18 19 19 19 19 19 19 19 19 19 19 19 18 18 17 17 17 17 16 15 14 13 12 12 12 13
18 18 18 18 17 17 16 16 16 15 16 16 17 18 18 18 18 18 18 19 19 20 20 19 19 19 19 19 19 18 18 18 18 18 18 18 17 17 16 16 15 14 13 13
16 17 17 17 17 17 16 16 15 15 16 16 16 17 17 18 18 18 18 18 18 19 19 19 18 18 18 18 18 18 18 19 19 18 18 19 19 18 18 17 17 16 15 14
15 16 17 17 16 16 15 15 15 15 15 15 15 16 16 17 17 17 17 17 17 17 17 18 18 18 17 17 18 18 18 19 19 19 19 19 20 20 19 19 18 17 16 15
13 14 15 16 16 15 15 14 14 14 14 14 14 14 14 15 16 16 16 16 16 16 17 17 17 17 17 17 17 18 18 18 19 20 20 20 21 21 20 20 19 18 18 17
10 12 13 14 15 14 14 14 13 12 12 12 12 12 12 12 13 13 14 15 15 15 15 15 15 16 16 16 17 17 17 18 19 20 20 21 21 22 22 21 20 20 19 19
8 9 10 12 13 13 13 13 12 11 10 10 10 10 10 10 10 11 11 12 12 13 13 14 14 15 15 16 16 17 17 18 19 19 20 20 21 22 22 23 22 21 21 20
6 7 8 9 10 11 11 11 11 11 10 9 9 8 8 8 8 8 9 10 10 11 12 12 13 14 14 15 16 16 17 18 19 19 20 20 20 21 22 22 23 22 22 22
7 6 6 7 8 9 10 10 9 9 9 8 8 7 7 7 7 7 7 8 9 10 10 11 11 12 13 14 15 16 17 17 18 19 19 20 20 20 21 21 22 22 22 22
8 8 7 7 6 7 8 8 8 8 8 8 7 7 7 6 6 7 7 7 8 8 9 9 10 11 11 12 13 14 15 16 17 18 18 19 20 20 20 20 20 21 21 21
9 9 9 8 8 7 7 7 7 7 7 8 7 7 7 7 6 6 6 7 7 7 8 8 8 9 10 10 11 12 14 15 16 16 17 18 18 19 19 19 19 19 19 19
12 11 10 10 9 9 9 8 8 7 7 7 7 7 7 7 7 7 7 7 7 7 7 7 8 8 9 9 10 11 12 13 14 15 16 16 17 17 17 17 18 18 18 18
15 14 13 12 12 11 11 10 10 9 9 8 8 8 8 8 8 8 8 7 7 8 7 7 7 8 8 9 9 9 10 11 12 13 14 15 15 15 16 15 16 16 16 16
18 17 16 15 15 14 14 13 13 12 12 11 11 10 10 9 9 9 9 9 9 9 8 8 8 8 8 8 8 8 8 9 10 11 12 13 13 14 14 14 14 14 14 14
23 21 20 19 18 17 17 16 16 16 15 15 15 14 13 12 11 11 11 11 10 10 10 10 10 9 9 8 8 8 8 8 8 9 10 10 11 12 12 12 12 12 12 11
27 26 25 23 22 21 20 20 19 19 19 18 18 18 17 16 15 14 13 13 12 12 11 11 12 11 10 10 9 9 9 9 8 8 8 9 9 10 10 10 10 10 10 9
32 31 30 28 27 26 25 24 23 22 22 22 22 21 21 20 19 18 17 16 15 14 13 13 13 13 12 12 11 11 10 10 9 9 9 9 8 8 9 9 8 8 8 7
38 37 35 34 32 31 30 28 28 27 26 25 25 25 24 24 23 23 22 21 19 18 17 16 15 15 14 14 14 13 12 12 11 11 10 10 9 9 9 8 8 8 7 7
43 42 41 39 38 36 35 34 33 31 30 29 29 28 28 27 27 26 26 25 24 23 22 20 19 18 17 16 16 16 16 15 14 13 13 12 11 11 10 10 9 9 8 8
48 47 46 45 43 42 41 39 38 36 35 34 33 32 32 31 30 30 29 29 28 27 26 25 24 23 21 20 20 19 18 18 17 17 16 15 14 14 13 12 12 11 11 10
52 52 51 49 48 46 45 44 42 41 40 39 38 37 36 35 34 34 33 33 32 31 30 30 29 27 26 24 23 22 21 20 19 19 19 18 18 17 17 16 15 14 14 13
54 54 54 53 52 50 49 48 46 45 44 43 42 42 41 39 39 38 37 37 36 35 34 33 33 32 31 29 28 26 25 24 23 22 21 21 21 20 20 19 19 18 18 17

GEFSNGP_500_meanwind_054.txt.gz
Wind_Speed
17 16 16 15 15 14 14 14 15 15 15 16 16 16 16 18 19 20 20 21 20 20 20 20 19 18 18 17 17 16 15 14 12 11 10 9 7 6 5 5 5 6 7 8
17 17 16 16 15 15 14 14 15 15 15 16 16 16 17 18 18 19 19 20 21 21 21 21 20 20 20 19 19 18 17 16 14 13 13 12 10 9 8 7 7 7 7 8
17 17 17 16 16 16 15 15 15 15 16 16 16 16 17 18 18 19 19 19 21 22 22 22 22 21 20 20 20 19 19 18 17 16 15 14 13 11 10 9 9 8 8 8
17 17 16 16 16 17 16 15 15 15 16 17 17 17 17 18 19 19 20 20 20 21 21 21 21 21 21 20 19 20 19 19 18 17 16 15 14 13 12 11 11 10 11 10
16 16 15 15 16 16 16 16 15 15 16 17 17 17 17 18 18 19 19 20 20 20 21 21 21 21 21 21 20 20 19 19 19 19 18 17 17 16 15 14 13 12 12 11
15 15 14 14 15 15 15 15 15 15 15 16 16 16 17 17 18 18 19 19 19 19 19 20 20 20 20 20 20 20 20 20 20 19 19 19 19 18 17 16 16 15 13 12
13 14 14 14 14 14 14 14 14 14 14 15 15 16 16 16 16 16 17 18 18 18 18 18 19 19 19 20 20 20 20 20 20 20 20 20 19 19 18 17 17 16 15 14
11 12 12 12 12 12 12 12 12 12 12 13 13 14 14 15 15 15 15 16 17 17 17 17 18 18 19 19 19 20 20 21 21 21 21 21 20 20 19 19 18 18 17 16
9 10 10 11 11 11 10 10 10 10 10 10 11 11 12 13 13 14 14 15 15 16 16 17 17 18 18 19 19 20 20 21 21 21 21 21 21 21 20 20 19 18 18 17
6 7 8 9 9 9 9 9 8 8 8 8 8 9 9 10 11 12 13 13 14 15 15 16 17 17 18 18 19 20 20 21 21 21 21 21 21 21 21 21 20 19 19 18
5 5 6 7 7 7 7 7 7 7 7 6 7 7 8 8 9 10 11 11 12 13 14 15 16 17 17 18 18 19 20 20 21 22 21 21 21 22 22 22 21 20 20 20
6 6 5 5 6 6 6 6 6 6 6 5 6 6 6 7 8 8 9 10 11 11 12 13 14 15 16 17 18 19 19 20 20 21 21 21 21 22 22 22 21 21 21 21
9 8 7 6 6 6 5 5 5 5 5 5 5 5 6 6 7 7 8 9 10 10 11 11 12 14 14 15 17 18 18 19 20 20 20 20 21 21 21 21 21 21 21 21
11 11 10 9 8 7 6 6 5 5 5 5 5 5 6 6 6 7 7 8 8 9 9 10 11 12 13 14 15 16 17 18 19 19 20 20 20 20 20 20 20 20 20 21
13 13 12 11 11 10 9 8 7 6 6 6 6 5 6 6 6 7 7 7 8 8 8 9 10 10 11 12 13 14 15 16 17 17 18 18 18 18 19 18 18 19 19 19
17 15 14 14 13 13 12 12 10 9 8 7 7 6 6 6 7 7 7 7 8 8 8 8 9 9 10 10 11 12 13 14 15 16 16 17 17 17 17 17 17 17 17 17
21 19 18 17 16 16 15 15 14 13 11 10 9 9 8 8 8 8 8 8 8 8 8 8 9 9 9 9 10 11 11 12 13 13 14 15 15 15 15 15 15 15 15 15
25 23 22 20 19 19 18 18 17 16 15 14 13 12 11 10 10 9 9 9 9 9 9 9 9 9 9 9 10 10 10 10 11 12 12 12 13 13 13 13 13 13 12 12
29 27 26 24 23 22 22 21 20 19 18 17 17 16 15 14 13 12 12 11 11 10 10 10 10 10 10 10 10 10 10 10 10 10 10 11 11 11 11 11 11 11 10 10
33 31 30 29 27 26 25 24 23 23 22 21 20 19 19 18 17 17 16 15 14 13 13 12 12 12 12 12 11 11 11 10 10 10 10 10 10 10 10 9 9 9 8 8
37 35 34 33 32 31 30 28 27 26 25 24 24 23 22 22 21 20 20 19 18 17 17 16 15 14 14 14 13 13 12 12 12 11 11 10 10 9 9 9 8 8 7 7
42 40 39 37 36 35 34 33 32 31 30 29 28 27 26 25 25 24 24 23 22 21 21 20 19 18 17 16 16 15 15 14 14 13 13 12 11 11 10 10 9 8 8 8
46 45 44 42 41 40 39 37 37 36 34 33 32 31 31 30 29 28 27 27 26 25 25 24 23 22 21 20 19 18 18 17 17 16 16 15 14 14 13 12 11 11 10 9
50 50 49 48 47 45 44 43 42 41 39 38 37 36 35 34 33 33 32 31 30 29 28 28 26 25 25 24 23 22 22 21 20 19 19 18 18 17 17 16 15 14 13 13
55 54 53 53 52 51 50 49 47 46 45 44 43 42 40 39 38 37 36 35 34 33 32 31 31 30 29 28 27 26 25 25 24 24 23 22 21 21 20 20 19 18 18 17
58 58 58 57 57 56 55 54 53 51 50 49 48 47 46 44 43 42 41 40 39 38 37 36 35 34 33 32 31 30 29 28 27 27 26 26 25 24 23 23 22 22 21 21
62 62 61 61 61 60 60 59 58 57 55 54 53 52 51 49 48 47 46 45 44 43 42 41 40 39 37 36 35 34 33 32 31 31 30 29 28 28 27 26 25 25 25 24

GEFSNGP_500_meanwind_060.txt.gz
Wind_Speed
15 15 15 16 15 14 14 14 14 14 14 14 14 15 15 15 17 18 18 19 20 21 21 21 21 21 20 20 20 19 18 17 15 13 11 9 7 5 4 2 3 4 6 8
15 15 16 17 16 15 14 15 15 15 15 15 15 15 16 16 16 17 18 19 19 20 21 21 21 21 20 20 20 20 18 17 16 15 14 12 11 9 7 5 4 3 4 6
14 15 15 16 16 15 15 15 16 16 15 15 15 16 16 17 17 18 19 19 20 20 21 21 21 20 20 20 20 19 19 18 17 15 14 13 12 11 9 8 7 5 5 6
13 14 14 14 15 15 15 15 15 15 14 14 15 15 15 16 17 18 18 19 19 20 21 21 21 21 20 20 20 20 20 19 18 17 16 15 14 13 12 10 9 7 6 6
13 13 13 13 13 13 13 13 14 13 13 13 14 14 15 15 16 16 17 18 18 19 19 20 20 20 20 20 20 20 20 20 19 18 17 16 16 14 13 12 11 9 8 8
11 11 12 12 11 11 11 11 12 12 12 12 13 13 14 14 15 16 16 16 17 17 18 19 19 19 19 20 20 20 20 20 20 19 18 18 17 17 16 14 13 11 10 9
8 9 10 11 10 10 10 9 9 10 11 11 12 12 12 13 13 14 15 15 16 16 17 17 18 19 19 20 20 20 20 20 20 20 19 19 19 18 17 16 15 13 12 11
6 7 8 8 9 9 9 8 8 8 9 9 10 11 11 12 12 13 14 15 15 16 16 17 17 18 18 19 20 20 20 20 20 20 20 20 19 19 19 17 16 15 14 13
5 5 6 7 7 8 8 8 8 7 7 8 8 9 10 10 11 11 12 13 14 15 15 16 17 17 18 19 19 20 21 21 21 21 21 20 20 19 19 19 18 17 16 15
6 6 6 6 6 7 7 8 8 7 7 7 7 8 8 9 9 10 10 11 12 13 14 15 15 16 17 18 18 19 20 21 21 20 20 21 20 20 20 20 19 18 17 17
9 8 8 7 7 7 7 7 8 8 8 8 7 8 8 8 9 9 9 10 10 11 12 13 14 15 16 17 17 18 19 20 20 20 20 20 20 20 20 20 20 20 19 18
12 11 10 10 9 8 8 7 7 8 8 8 8 8 8 8 8 8 8 9 9 10 10 11 12 13 14 15 16 17 18 18 19 19 19 19 19 20 20 20 20 20 19 19
14 14 13 13 12 11 10 9 9 8 8 8 8 8 8 8 8 8 8 8 8 9 9 10 10 11 12 13 14 15 16 17 18 18 18 18 18 18 19 19 19 19 19 19
17 17 16 15 15 14 14 13 12 11 10 9 9 8 8 8 8 8 8 8 8 8 9 9 9 10 10 11 12 13 14 15 15 16 16 16 17 17 17 17 17 18 18 18
20 19 19 18 17 17 16 16 15 14 13 12 11 10 10 9 9 9 9 9 8 8 8 8 9 9 9 10 10 11 12 13 14 14 15 15 15 15 15 16 16 16 16 16
23 22 22 21 20 20 19 19 18 17 16 15 14 13 12 11 10 10 9 9 9 9 9 9 8 9 9 9 9 10 10 11 12 12 12 13 13 13 13 14 14 14 14 14
27 26 25 24 24 23 23 22 21 20 19 19 18 16 15 14 13 12 11 11 10 10 9 9 9 9 9 9 9 9 9 9 9 10 11 11 11 11 12 11 12 12 12 12
31 30 29 28 27 26 25 25 24 24 23 22 20 20 19 18 17 15 14 13 12 11 11 10 10 10 9 9 9 9 8 8 8 8 9 9 9 9 9 10 10 10 10 10
36 34 33 32 31 29 29 28 27 27 26 24 23 22 22 21 20 18 17 16 15 14 13 13 12 12 11 11 10 10 9 9 9 8 8 8 8 8 8 8 7 8 8 8
41 39 38 36 35 33 32 32 31 30 29 28 27 26 25 24 23 21 21 20 19 18 17 16 15 14 14 13 12 12 11 11 10 10 9 9 9 8 8 7 7 7 6 6
46 45 43 41 39 38 37 35 34 33 32 31 30 29 28 27 26 24 23 23 22 20 20 19 19 18 17 16 15 14 14 13 12 12 11 11 10 10 9 9 8 8 7 7
51 50 48 46 45 43 42 40 39 37 36 35 34 33 32 31 29 28 27 26 25 23 23 22 22 21 20 20 19 18 17 16 15 15 14 14 13 13 12 11 11 11 10 10
55 54 53 51 49 48 47 45 43 42 40 39 38 37 36 35 33 32 31 30 28 27 26 25 24 24 23 22 22 21 20 20 19 18 18 17 17 16 16 15 15 14 14 13
59 58 57 56 54 53 51 50 48 47 46 45 43 42 41 39 37 36 35 34 32 31 30 29 28 27 26 25 25 24 24 23 22 22 21 21 20 20 19 19 19 19 18 18
62 62 61 60 59 58 56 55 54 52 51 50 48 47 45 44 42 41 40 38 37 36 35 34 32 31 30 29 29 28 27 27 26 25 25 24 24 24 23 23 22 22 22 22
65 65 65 64 64 63 61 60 59 57 56 55 53 52 50 48 47 46 44 43 42 41 40 38 37 36 35 34 33 32 32 31 30 30 29 29 28 28 28 27 27 26 25 25
66 66 67 68 67 67 66 65 64 62 61 60 58 57 56 54 52 51 50 48 47 45 44 43 42 41 40 39 38 37 37 36 36 35 34 34 33 33 32 32 31 31 30 30

GEFSNGP_500_meanwind_066.txt.gz
Wind_Speed
12 13 14 14 14 13 13 14 14 14 14 14 15 16 16 17 17 18 19 20 21 21 21 22 22 22 22 22 21 21 21 20 18 18 17 15 13 12 11 9 7 6 5 6
11 12 13 13 13 14 14 14 13 14 14 14 15 16 16 17 17 18 19 20 21 21 21 22 22 22 22 22 22 22 21 20 20 19 18 17 16 14 12 10 9 8 7 6
11 11 12 12 13 13 13 13 13 13 14 14 15 15 16 16 16 17 17 19 20 21 21 22 22 22 22 22 22 22 22 21 21 20 19 18 17 16 14 12 11 9 8 7
10 11 11 12 12 12 12 12 13 13 13 13 15 15 15 16 16 16 17 18 19 20 20 21 21 22 23 23 22 22 22 22 21 21 21 20 19 17 16 14 13 11 10 9
8 10 11 11 11 11 11 11 12 12 12 13 13 14 15 15 15 16 16 17 18 19 19 20 20 22 22 23 23 23 23 23 22 22 21 21 20 19 18 17 15 14 13 12
7 8 9 10 10 10 11 10 11 11 12 12 12 13 14 14 15 15 16 17 18 18 19 19 20 20 21 22 23 23 23 23 23 23 23 22 21 21 20 18 17 15 15 14
7 7 8 9 9 10 10 11 11 11 11 12 12 13 13 13 13 14 15 16 17 17 18 18 19 19 20 21 22 23 23 23 23 23 23 23 22 22 22 21 19 18 17 16
9 8 8 8 8 9 9 10 10 11 11 11 11 12 12 13 13 13 13 14 15 16 17 17 18 18 19 20 21 22 22 22 23 23 23 24 23 23 22 22 21 19 19 18
11 10 10 10 9 9 9 9 10 10 10 11 11 11 11 12 12 12 13 13 14 14 15 16 17 17 18 19 20 21 21 22 22 22 23 23 23 23 22 22 22 21 20 19
14 13 12 12 11 11 11 10 10 10 10 10 10 10 10 11 11 12 12 12 12 13 13 14 15 16 16 17 18 19 20 20 21 22 22 22 23 23 22 22 22 21 21 20
16 16 15 15 14 13 12 12 11 11 10 10 10 10 10 10 11 11 11 11 11 12 12 13 13 14 14 15 16 17 18 19 19 20 21 21 22 22 22 22 21 21 21 20
19 18 18 17 16 16 15 14 14 13 12 11 11 10 10 10 10 10 10 10 11 11 11 12 12 12 13 14 14 15 16 16 17 18 19 20 20 20 20 21 20 20 21 20
22 22 21 19 19 18 18 17 16 15 14 14 13 12 11 11 11 10 10 10 10 11 11 11 11 11 12 12 13 13 13 14 15 16 17 17 18 18 18 19 19 19 19 19
26 25 24 23 22 21 21 20 19 18 17 16 15 15 14 13 13 12 12 11 11 11 11 11 10 11 11 11 11 11 12 12 13 13 14 15 15 16 16 17 17 17 17 17
30 29 27 27 26 25 24 23 22 21 20 19 18 18 17 16 15 14 13 13 12 12 11 11 11 10 10 10 10 10 10 10 11 11 11 12 12 13 14 14 14 14 14 15
34 33 32 31 30 29 28 27 26 25 24 22 21 21 20 19 18 17 16 15 15 14 13 13 12 11 11 10 10 10 10 10 9 9 10 10 10 10 11 11 12 12 12 12
39 37 36 35 34 33 32 31 30 29 27 26 25 24 23 22 21 20 20 19 18 17 16 15 14 13 12 12 11 11 10 10 9 9 8 8 8 8 9 9 9 9 9 9
44 42 41 40 39 38 37 35 34 33 32 31 29 28 26 25 24 24 23 22 21 20 19 18 17 16 15 14 13 12 12 11 11 10 9 8 8 8 7 7 7 7 7 7
47 47 46 45 44 43 42 40 39 38 36 35 33 32 30 29 28 27 26 25 23 23 23 22 20 19 18 18 16 15 14 13 13 12 11 11 10 9 8 8 7 7 7 6
51 51 51 50 49 48 46 45 44 43 41 40 38 36 35 33 32 31 30 28 26 26 26 25 24 23 22 21 20 19 18 17 16 15 14 13 12 12 11 10 10 9 9 8
54 54 54 54 53 53 51 50 49 47 46 45 43 41 40 38 37 36 34 31 30 30 30 28 27 26 26 24 23 22 21 20 19 18 18 17 16 15 14 14 13 13 12 11
56 56 57 57 57 56 56 55 54 53 51 50 48 47 45 43 42 40 38 36 35 34 33 32 30 30 29 28 27 26 25 24 23 22 21 20 20 19 18 17 17 16 16 15
59 59 59 60 60 60 59 59 59 58 56 55 53 52 50 49 47 46 43 41 40 39 37 36 35 34 33 32 30 29 29 28 27 26 25 24 23 23 22 21 21 20 20 19
61 60 60 61 62 63 63 63 62 62 61 60 58 57 55 54 53 51 49 47 46 44 42 40 39 38 38 36 35 33 32 31 30 29 29 28 27 26 25 25 24 24 23 23
60 60 61 61 61 62 64 65 66 65 65 64 63 61 60 59 58 56 55 53 51 49 47 46 45 44 42 41 39 38 37 36 35 34 33 32 31 30 29 29 28 27 27 26
62 61 60 60 61 61 63 64 66 68 68 67 66 65 64 63 62 61 60 58 56 54 53 52 50 49 48 46 45 43 42 41 39 38 37 36 35 34 34 33 32 31 31 30
63 63 63 62 61 61 61 62 64 66 68 69 69 69 68 67 66 65 64 63 62 60 59 57 56 54 53 52 50 48 47 46 44 43 42 41 40 39 38 37 36 36 35 35

GEFSNGP_500_meanwind_072.txt.gz
Wind_Speed
7 7 8 9 10 11 11 11 12 13 13 14 14 14 15 16 17 18 18 19 20 21 21 22 23 24 23 23 23 23 22 21 20 19 18 17 16 15 13 11 9 6 5 3
6 7 7 8 9 9 10 10 11 12 12 13 14 14 15 16 17 18 18 19 20 21 21 22 22 23 23 23 23 23 23 22 21 20 19 18 17 16 14 13 10 8 6 4
6 6 7 7 8 8 9 9 10 10 11 11 12 13 14 15 16 17 17 18 19 20 21 21 22 23 23 23 23 23 23 23 22 21 21 19 18 17 16 14 12 10 8 6
4 5 5 6 7 8 8 9 9 9 10 10 11 12 13 14 15 16 17 18 19 19 20 21 21 22 23 23 23 24 24 24 24 23 22 20 19 18 17 16 14 12 10 8
3 3 4 5 6 6 7 8 8 9 9 10 11 12 13 13 14 15 16 17 18 18 19 20 20 21 22 23 23 23 24 24 24 24 23 22 21 20 19 18 16 14 12 11
2 3 4 5 6 6 7 7 8 8 9 9 10 11 12 12 13 13 14 15 16 17 18 18 19 20 21 21 22 22 23 23 24 24 24 23 22 21 21 20 19 17 15 14
4 5 5 5 5 6 6 7 8 9 9 9 10 11 11 12 12 13 14 14 15 16 17 18 18 19 19 20 21 21 22 22 23 23 23 23 22 21 21 20 19 19 18 16
7 7 7 7 7 7 7 8 9 9 9 10 10 11 11 12 12 12 13 14 14 15 15 16 17 17 18 19 20 20 21 21 22 22 22 22 22 21 21 21 20 19 18 17
10 10 10 10 9 9 9 10 10 10 10 10 11 11 11 12 12 12 12 13 13 14 14 15 16 16 17 17 18 19 19 20 20 21 21 21 21 21 21 20 20 20 19 18
13 13 12 12 12 12 12 12 12 11 11 11 11 11 12 12 12 12 12 12 13 13 13 14 15 15 16 16 17 17 18 18 19 19 20 20 20 21 20 20 20 20 19 18
16 15 15 15 15 15 15 15 15 14 14 14 13 13 13 13 12 12 12 13 13 13 13 13 14 14 14 15 15 15 16 16 17 17 17 18 18 19 19 19 18 18 19 18
18 18 17 18 18 18 18 18 17 17 17 17 16 16 15 15 14 14 14 14 14 13 13 13 13 13 13 13 13 14 14 14 14 15 15 15 15 16 16 17 17 17 17 17
22 22 21 21 21 21 21 21 20 20 20 19 19 19 19 18 18 17 16 16 16 15 15 14 14 13 13 13 13 13 12 12 12 13 13 13 13 13 13 14 14 15 15 15
26 26 25 25 25 25 25 24 24 23 23 22 22 22 22 21 21 20 20 19 18 18 17 16 16 15 14 13 13 12 12 11 11 11 11 11 11 11 11 11 11 12 12 13
31 30 30 29 29 29 29 28 28 27 27 26 26 25 25 24 24 23 23 22 21 20 20 19 18 17 16 15 14 14 13 12 11 11 10 10 10 9 9 9 9 9 9 10
34 35 35 34 34 34 33 33 32 32 31 30 30 29 29 28 27 27 26 26 25 24 23 22 21 20 19 18 17 16 15 14 13 12 11 11 10 9 8 8 7 7 7 7
37 38 39 39 39 39 38 38 37 36 36 35 34 34 33 32 31 31 31 30 29 27 27 26 25 24 23 22 20 19 18 17 16 15 13 13 12 11 10 9 8 7 6 6
41 42 42 43 43 43 42 42 42 41 41 40 40 39 38 37 36 35 35 34 32 31 30 30 29 28 27 25 24 23 22 21 20 18 17 16 15 14 13 12 10 9 8 7
44 44 45 46 46 47 47 47 46 46 46 45 44 43 43 41 40 40 39 38 36 35 34 35 33 32 30 29 28 27 26 24 23 22 21 19 18 17 16 15 14 13 12 11
46 46 47 48 49 50 51 51 51 51 51 51 50 49 48 47 46 45 44 42 40 39 39 39 37 36 34 34 33 31 30 28 27 26 25 23 22 21 19 18 17 16 15 14
45 46 47 49 50 51 52 53 53 54 54 55 55 54 53 52 51 50 49 47 45 45 44 43 41 40 39 38 37 35 34 32 31 30 28 27 26 25 23 22 21 20 19 18
44 45 46 48 49 51 53 54 55 56 57 57 58 58 57 56 56 55 54 52 50 49 49 47 46 44 43 42 41 39 38 36 35 33 32 31 30 29 27 26 25 24 23 22
45 45 46 48 49 50 52 53 54 56 57 58 59 59 60 60 60 59 58 57 55 54 53 51 50 49 48 47 45 43 42 40 39 38 36 35 34 32 31 30 29 28 27 26
46 47 48 49 50 51 52 53 54 55 56 57 58 59 60 61 61 61 61 60 60 59 58 56 55 54 53 52 50 48 46 45 43 42 41 39 38 36 35 34 33 32 31 30
50 51 52 53 53 54 54 55 55 56 56 57 58 59 60 61 62 63 63 63 63 63 62 61 60 58 58 56 55 54 52 50 48 47 45 44 42 41 39 38 37 36 35 34
53 54 55 56 56 57 57 57 58 58 58 58 58 59 60 61 62 63 64 65 65 65 65 65 64 63 62 61 60 58 57 55 54 52 50 49 47 45 44 42 41 40 39 38
56 57 58 59 59 59 59 59 59 59 58 58 58 58 59 59 60 61 62 64 65 66 66 66 66 66 66 65 64 63 62 60 59 57 55 54 52 51 49 47 46 45 43 42

GEFSNGP_500_meanwind_078.txt.gz
Wind_Speed
2 2 3 3 4 5 5 6 7 8 9 10 11 12 13 15 16 17 19 20 20 21 22 23 23 24 24 25 25 25 25 25 25 25 24 22 21 19 17 14 12 10 9 7
1 1 2 3 4 4 5 6 6 7 8 9 10 12 13 14 15 16 18 19 20 20 21 22 23 23 24 25 25 25 25 26 26 26 25 23 22 20 18 16 14 12 11 9
0 0 1 2 3 4 5 6 7 7 9 10 10 12 13 14 15 16 17 18 19 19 20 21 22 23 24 24 25 25 25 25 26 26 26 24 23 21 20 18 17 14 12 11
1 1 1 2 3 4 5 6 7 8 9 10 11 12 13 14 15 15 16 17 18 18 19 20 21 22 23 24 24 25 24 25 25 25 25 25 24 22 21 19 18 17 15 13
3 3 3 3 4 5 6 7 8 9 9 10 11 12 13 14 14 15 16 16 17 17 18 19 20 21 22 23 24 24 24 24 24 25 25 24 24 23 22 21 19 18 17 15
6 5 5 6 6 6 7 8 9 10 10 11 11 12 13 14 14 15 15 16 16 17 17 18 19 20 21 22 22 23 23 24 24 24 24 24 23 23 22 21 20 19 18 17
9 9 9 8 9 9 9 10 10 11 11 12 12 12 13 14 14 15 15 16 16 17 17 18 18 18 19 20 21 22 22 23 23 23 23 23 23 22 22 21 20 20 19 18
11 11 11 11 11 11 12 12 12 13 13 13 13 13 14 14 14 15 15 16 16 16 17 17 18 18 18 19 20 20 21 21 22 22 22 22 22 22 22 21 20 19 19 19
13 13 14 14 14 14 14 15 15 15 15 15 15 15 15 15 15 16 16 16 16 17 17 17 18 18 18 19 19 19 20 20 20 20 21 21 21 21 21 21 20 19 18 18
16 16 16 16 16 17 17 17 18 18 18 18 18 18 18 18 18 18 18 18 18 18 18 18 18 18 18 18 19 19 19 19 19 19 19 19 19 20 20 20 19 18 17 17
19 19 19 19 19 19 20 20 20 20 20 20 21 21 21 21 20 20 20 20 20 19 19 19 19 19 19 19 19 19 18 18 18 18 18 17 17 17 18 18 18 17 16 16
22 21 22 22 22 22 23 23 23 23 23 23 23 23 23 23 23 23 23 22 22 22 21 21 21 20 20 20 19 19 19 18 18 17 17 17 16 15 15 15 15 15 14 14
25 25 25 25 25 26 26 26 26 26 26 26 26 26 26 26 26 25 25 25 24 24 24 23 23 22 22 22 21 20 20 19 19 18 17 17 16 15 14 14 13 13 12 12
28 28 28 28 29 29 29 30 30 30 29 29 29 29 28 28 28 28 28 28 27 26 26 26 25 25 24 24 23 22 21 21 20 19 19 18 17 16 15 14 13 12 11 10
31 32 32 32 32 32 33 33 33 33 32 32 32 32 32 32 31 32 32 31 31 30 30 29 29 28 28 27 26 25 24 23 22 21 20 19 18 17 16 15 14 13 12 10
35 35 36 36 36 36 36 36 36 36 36 36 36 36 36 35 35 35 36 35 35 34 34 33 33 32 32 30 29 28 27 26 25 24 23 22 21 19 18 17 16 15 13 12
38 38 39 39 40 39 39 39 39 39 39 40 40 39 39 39 39 39 39 39 39 38 38 38 37 37 36 35 33 32 31 30 29 28 26 25 24 23 21 20 19 18 16 15
41 42 42 42 42 42 43 43 43 43 43 43 43 43 43 43 43 43 43 43 42 42 42 42 42 41 40 39 38 37 35 34 32 31 30 29 27 26 25 24 22 21 20 19
43 43 44 44 44 45 45 45 45 46 46 45 45 46 45 45 45 45 45 45 45 45 45 45 45 45 44 44 43 42 40 38 37 35 34 33 31 30 29 27 26 25 24 22
45 45 45 45 45 46 46 47 47 47 47 47 47 47 48 48 47 47 47 48 48 47 47 48 48 48 48 47 47 46 44 43 41 40 39 37 36 34 33 31 30 29 27 26
45 45 45 45 45 45 46 46 47 47 47 48 48 48 48 49 49 49 49 50 50 50 50 50 50 50 50 50 50 50 49 48 46 45 43 42 40 39 37 36 34 33 31 30
43 43 44 44 45 45 46 46 46 47 47 48 48 49 49 50 50 51 52 52 52 52 53 53 53 53 53 53 53 53 52 52 51 50 48 47 45 43 42 40 39 37 36 34
43 43 43 44 44 44 45 45 46 46 47 48 49 50 50 51 52 52 53 53 54 54 54 54 55 55 56 56 56 56 56 55 55 54 53 52 50 49 47 45 43 42 40 39
42 42 42 43 43 44 45 45 46 47 48 49 50 51 52 53 54 55 55 56 56 56 57 57 57 57 57 58 59 59 59 59 58 58 58 57 55 54 52 50 48 46 45 43
41 42 42 42 43 44 45 46 48 49 50 51 53 54 55 56 56 57 58 58 59 59 59 59 59 59 59 59 60 60 61 61 61 61 61 61 59 58 57 55 53 51 49 47
42 42 43 44 45 46 47 48 50 51 52 53 54 56 57 58 58 59 60 60 61 61 61 60 60 60 60 60 60 60 61 62 63 63 63 63 63 62 61 59 57 55 53 51
44 44 45 46 47 48 49 50 50 51 53 54 55 56 58 59 60 60 61 61 61 61 61 61 60 60 60 59 59 59 60 60 61 62 63 64 64 64 63 62 61 59 57 56

GEFSNGP_500_meanwind_084.txt.gz
Wind_Speed
5 4 4 3 3 3 3 3 3 4 5 6 7 9 10 12 13 14 15 16 16 17 19 20 21 23 23 24 25 25 26 26 26 25 24 23 22 21 20 19 17 15 13 11
5 4 4 3 3 2 2 2 2 3 4 6 7 9 10 11 13 14 15 15 16 17 18 19 21 22 23 24 24 24 25 25 26 25 25 24 23 22 21 20 19 16 15 13
5 4 4 3 2 1 1 1 2 3 4 6 7 8 10 11 12 13 14 15 15 16 17 19 20 21 22 23 23 24 24 24 25 25 25 24 24 23 23 21 20 19 17 14
5 5 4 3 2 1 1 2 3 4 5 6 7 8 10 11 12 13 14 14 15 16 17 18 19 20 21 22 23 23 24 24 24 24 24 24 23 23 23 22 21 20 19 17
6 5 4 4 3 3 4 4 4 5 6 7 8 9 10 11 12 13 14 14 15 16 17 17 18 19 20 21 22 23 23 24 24 24 23 23 23 23 23 23 22 21 20 19
7 7 6 6 6 6 6 6 6 7 8 9 10 11 11 12 13 13 14 15 15 16 17 18 18 19 19 20 21 22 22 23 23 23 23 22 22 22 23 23 23 21 20 20
10 9 9 8 8 8 9 9 9 9 10 11 11 12 13 13 14 14 15 16 16 17 18 18 19 19 19 20 20 21 21 22 22 22 21 21 21 21 22 22 22 22 21 20
12 12 11 11 11 11 11 11 12 12 12 13 13 14 14 15 15 16 16 17 17 18 19 19 19 20 20 20 20 20 21 21 21 21 20 20 19 20 21 21 21 21 20 19
15 14 14 14 14 14 14 14 15 15 15 16 16 16 17 17 17 18 18 18 19 19 19 20 20 20 20 20 20 20 20 20 20 20 20 19 18 19 19 19 20 20 19 19
17 16 17 17 17 17 17 17 18 18 18 18 18 19 19 19 19 19 20 20 20 20 20 20 20 20 20 20 20 20 20 20 20 20 19 19 18 18 18 18 18 18 18 17
20 20 20 20 20 20 20 20 20 20 20 20 21 21 21 21 21 21 21 21 21 21 21 21 21 21 21 21 21 21 21 21 20 20 20 19 19 18 18 17 17 17 16 16
23 23 23 22 22 22 22 22 22 22 22 22 22 23 23 23 23 23 23 23 23 23 24 24 24 23 23 22 22 22 22 21 21 21 20 20 19 19 18 18 17 17 16 15
26 25 25 25 25 24 24 24 25 25 25 25 25 25 25 25 25 25 25 25 25 26 26 26 26 26 25 25 24 24 23 23 23 22 22 21 21 20 19 19 18 17 17 16
28 28 27 27 27 27 27 27 27 27 27 27 28 28 28 28 28 28 28 28 28 28 28 28 28 28 27 27 26 26 26 25 25 24 24 23 22 22 21 20 19 19 18 17
30 30 30 30 30 30 30 30 30 30 30 30 30 30 30 31 31 30 30 30 31 31 31 31 31 30 30 29 29 28 28 27 27 26 26 26 25 24 24 23 22 21 20 19
33 33 33 33 33 33 33 33 33 33 33 33 33 33 33 33 33 33 33 33 33 33 32 32 33 33 32 32 31 31 30 30 30 29 29 28 28 27 27 26 25 24 23 22
36 36 36 36 36 36 36 36 36 36 36 35 35 35 35 35 35 35 35 34 34 34 34 34 34 34 34 34 33 32 32 32 33 32 32 32 32 31 30 30 29 28 27 26
39 39 39 39 39 39 39 39 39 39 38 38 38 37 37 37 37 36 36 36 36 36 36 36 36 36 35 35 35 35 35 35 35 35 35 35 35 34 34 34 33 33 31 30
41 41 41 42 42 42 42 41 41 41 40 40 39 38 38 38 38 38 38 38 38 39 38 38 38 38 38 38 38 38 38 38 38 38 38 38 38 38 38 37 37 37 37 36
43 43 43 43 43 43 43 43 42 42 41 40 40 39 39 38 38 38 39 39 39 39 40 40 40 40 40 40 41 41 41 41 41 41 41 42 42 42 42 42 42 41 41 41
45 44 44 44 43 43 43 43 43 43 42 41 41 41 40 40 40 40 40 41 41 41 41 41 41 41 42 42 43 43 43 44 44 44 45 45 45 46 46 46 46 46 46 46
45 45 45 45 45 44 44 44 44 44 43 43 42 41 41 41 41 41 42 43 43 42 42 42 43 43 44 45 46 46 47 47 48 48 48 49 49 49 50 50 50 50 50 50
45 45 45 45 45 45 45 45 44 44 43 43 42 42 42 43 43 43 44 43 43 44 44 45 46 47 47 48 49 49 50 50 51 52 52 53 53 53 54 54 54 54 54 54
44 44 45 45 45 45 45 44 44 43 43 43 43 44 44 44 44 44 44 45 45 46 47 48 48 49 50 51 51 52 53 53 54 54 55 55 55 56 56 57 57 57 57 57
43 44 44 44 44 44 43 43 43 43 44 44 44 44 43 44 44 45 46 46 47 48 49 49 50 51 52 53 54 54 55 55 56 56 56 56 56 56 56 57 58 59 59 59
43 43 43 42 42 42 42 43 43 43 43 43 43 43 44 45 45 46 47 48 49 49 50 51 52 53 54 54 55 55 55 56 56 56 56 56 56 56 57 57 57 59 60 60
42 42 42 42 42 42 42 42 42 42 43 43 43 44 45 46 47 47 48 49 50 51 52 53 53 54 54 54 55 55 55 56 56 56 56 56 56 56 56 56 56 57 58 59